Flight Briefing for CMB842

Departure Arrival
NAS Sigonella (LICZ)
Click to view FAA NOTAMS
Naval Station Rota (LERT)
Click to view FAA NOTAMS
Departure Time Arrival Time
N/A N/A
Aircraft Distance
B757-200SF 1021nm
Departure METAR Arrival METAR
LICZ 271055Z 23011KT 9999 FEW040 SCT060 24/13 Q1009 RMK BKN VIS MIN 9999 WIND THR28 23011KT WIND THR10 23008KT A2981 BLU LERT 271100Z 26007KT 220V290 CAVOK 25/13 Q1013 NOSIG
Suggested Route
NELDA5U NELDA N573 BASMO M980 TBS UA31 ALR A411 MOS A44 MGA


View recent IFR Routes data
Notes
USTRANSCOM CONTRACT FLIGHT

Charts and Procedures

Charts for LICZ
No chart available
Charts for LERT
No chart available

Windy.com Weather Map